DW9584 Weather Reports


Display with metric or nautical units.
time (UTC)temp
F
wind
direction
speed
MPH
gust
MPH
rain 1hr
in
rain 24hr
in
rain mn
in
humidity
%
barometer
mb
20260831224535 75 213 0.0 0.0 0.00 0.08 0.01 82 1018.4
20260831223034 76 213 0.0 0.0 0.00 0.08 0.01 81 1018.4
20260831221532 77 213 0.0 0.0 0.00 0.08 0.01 78 1018.5
20260831220030 76 213 0.0 0.0 0.00 0.08 0.01 80 1018.8
20260831214527 76 213 0.0 0.0 0.00 0.08 0.01 80 1018.9
20260831213034 76 213 0.0 0.0 0.00 0.08 0.01 81 1018.8
20260831211525 76 213 0.0 0.0 0.00 0.08 0.01 78 1018.8
20260831210032 78 317 0.0 2.0 0.00 0.08 0.01 75 1019.0
20260831204533 79 316 0.0 2.0 0.00 0.08 0.01 72 1019.2
20260831203036 78 249 0.0 2.0 0.00 0.08 0.01 76 1019.2
20260831201539 78 233 0.0 0.0 0.00 0.08 0.01 77 1019.0
20260831200039 78 233 0.0 2.0 0.00 0.08 0.01 77 1019.1
20260831194505 77 269 0.0 2.0 0.00 0.08 0.01 77 1019.4
20260831193028 78 236 0.0 3.0 0.00 0.08 0.01 74 1019.5
20260831191530 77 225 0.0 2.0 0.00 0.08 0.01 76 1019.8
20260831190026 77 185 0.0 0.0 0.00 0.08 0.01 74 1019.9
20260831184525 78 185 0.0 2.0 0.00 0.08 0.01 71 1020.1
20260831183019 79 321 0.0 2.0 0.00 0.08 0.01 73 1020.0
20260831181519 77 169 0.0 1.0 0.00 0.08 0.01 78 1020.0
20260831180010 76 155 0.0 3.0 0.00 0.08 0.01 75 1020.1
20260831174530 77 231 0.0 2.0 0.00 0.08 0.01 73 1020.3
20260831173041 77 165 0.0 2.0 0.00 0.08 0.01 72 1020.3
20260831171528 77 165 0.0 2.0 0.00 0.08 0.01 71 1020.3
20260831170028 77 1 0.0 2.0 0.00 0.08 0.01 69 1020.3
20260831164524 77 21 0.0 2.0 0.00 0.08 0.01 71 1020.3
20260831163019 77 349 0.0 3.0 0.00 0.08 0.01 71 1020.4
20260831161518 75 335 0.0 2.0 0.00 0.08 0.01 73 1020.5
20260831160025 76 347 0.0 2.0 0.00 0.08 0.01 78 1020.4
20260831154556 75 347 0.0 0.0 0.00 0.08 0.01 75 1020.4
20260831153030 74 347 0.0 2.0 0.00 0.08 0.01 79 1020.5
20260831151532 74 359 0.0 2.0 0.00 0.08 0.01 79 1020.3
20260831150027 74 359 0.0 2.0 0.00 0.08 0.01 80 1020.7
20260831144540 73 359 0.0 1.0 0.00 0.08 0.01 81 1020.9
20260831143033 73 359 0.0 2.0 0.00 0.08 0.01 81 1020.8
20260831141519 73 359 0.0 0.0 0.00 0.08 0.01 82 1020.6
20260831140033 72 359 0.0 0.0 0.00 0.08 0.01 83 1020.8
20260831134534 72 359 0.0 1.0 0.00 0.08 0.01 88 1020.6
20260831133033 71 359 0.0 2.0 0.00 0.08 0.01 90 1020.5
20260831131531 70 359 0.0 1.0 0.00 0.08 0.01 93 1020.7
20260831130030 70 359 0.0 2.0 0.00 0.08 0.01 95 1020.7
20260831124527 69 359 0.0 0.0 0.00 0.08 0.01 96 1020.7
20260831123033 69 359 0.0 0.0 0.00 0.08 0.01 96 1020.6
20260831121533 68 359 0.0 0.0 0.00 0.08 0.01 96 1020.5
20260831120034 69 359 0.0 0.0 0.00 0.08 0.01 96 1020.5
20260831114535 69 359 0.0 0.0 0.00 0.08 0.01 96 1020.4
20260831113033 69 359 0.0 0.0 0.00 0.08 0.01 96 1020.1
20260831111549 68 359 0.0 0.0 0.00 0.08 0.01 96 1020.0
20260831110031 69 359 0.0 0.0 0.00 0.08 0.01 96 1020.0
20260831104511 69 359 0.0 0.0 0.00 0.08 0.01 96 1020.0
20260831103004 69 359 0.0 0.0 0.00 0.08 0.01 96 1019.9
20260831101503 69 359 0.0 0.0 0.00 0.08 0.01 96 1019.8
20260831100023 69 359 0.0 0.0 0.00 0.08 0.01 96 1019.5
20260831094526 69 359 0.0 0.0 0.00 0.08 0.01 96 1019.6
20260831093019 69 359 0.0 0.0 0.00 0.08 0.01 96 1019.1
20260831091518 69 359 0.0 2.0 0.00 0.08 0.01 96 1019.0
20260831090017 69 226 0.0 2.0 0.00 0.08 0.01 96 1018.9
20260831084508 69 226 0.0 0.0 0.00 0.08 0.01 96 1018.7
20260831083005 69 226 0.0 0.0 0.00 0.08 0.01 96 1018.8
20260831081516 69 226 0.0 0.0 0.00 0.08 0.01 96 1018.8
20260831080028 69 226 0.0 0.0 0.00 0.08 0.01 96 1018.9
20260831074537 68 226 0.0 0.0 0.00 0.08 0.01 96 1018.9
20260831073056 68 226 0.0 0.0 0.00 0.08 0.01 96 1019.1
20260831071517 68 226 0.0 0.0 0.00 0.08 0.01 96 1019.1
20260831070021 68 226 0.0 0.0 0.00 0.08 0.01 95 1019.1
20260831064528 68 226 0.0 2.0 0.00 0.08 0.01 95 1019.1
20260831063017 68 226 0.0 0.0 0.00 0.08 0.01 95 1018.9
20260831061537 69 226 0.0 0.0 0.00 0.08 0.01 95 1019.2
20260831060027 69 226 0.0 0.0 0.00 0.08 0.01 95 1019.4
20260831054529 69 226 0.0 0.0 0.00 0.08 0.01 95 1019.5
20260831053032 69 226 0.0 0.0 0.00 0.08 0.01 95 1019.5
20260831051527 69 226 0.0 0.0 0.01 0.08 0.01 95 1019.4
20260831050036 69 226 0.0 0.0 0.01 0.08 0.01 95 1019.3
20260831044516 69 226 0.0 0.0 0.01 0.08 0.01 95 1019.6
20260831043015 69 226 0.0 0.0 0.01 0.08 0.01 94 1019.4
20260831041543 70 226 0.0 0.0 0.01 0.07 0.00 94 1019.3
20260831040047 70 184 0.0 0.0 0.03 0.07 0.00 94 1019.5
20260831034508 70 184 0.0 1.0 0.03 0.07 0.07 93 1019.3
20260831033012 71 283 0.0 2.0 0.05 0.07 0.07 93 1019.4
20260831031507 73 334 1.0 5.0 0.06 0.06 0.06 94 1019.5
20260831030021 74 229 0.0 0.0 0.04 0.04 0.04 94 1019.4
20260831024509 74 229 0.0 0.0 0.04 0.04 0.04 94 1019.2
20260831023012 74 229 0.0 2.0 0.02 0.02 0.02 94 1019.2
20260831021511 74 229 0.0 0.0 0.00 0.00 0.00 93 1019.4
20260831020008 74 229 0.0 0.0 0.00 0.00 0.00 93 1019.2
20260831014512 74 229 0.0 0.0 0.00 0.00 0.00 92 1019.3
20260831013011 75 229 0.0 0.0 0.00 0.00 0.00 91 1019.5
20260831011517 75 229 0.0 0.0 0.00 0.00 0.00 90 1019.5
20260831010015 76 229 0.0 0.0 0.00 0.00 0.00 88 1019.5
20260831004518 76 229 0.0 2.0 0.00 0.00 0.00 87 1019.2
20260831003019 76 229 0.0 0.0 0.00 0.00 0.00 87 1018.8
20260831001513 76 229 0.0 0.0 0.00 0.00 0.00 86 1018.7
20260831000018 76 229 0.0 0.0 0.00 0.00 0.00 86 1018.6
20260830234521 76 229 0.0 0.0 0.00 0.00 0.00 84 1018.7
20260830233026 77 229 0.0 0.0 0.00 0.00 0.00 83 1018.8
20260830231516 78 229 0.0 0.0 0.00 0.00 0.00 81 1018.8
20260830230023 79 229 0.0 2.0 0.00 0.00 0.00 79 1018.8